Brownwood, TX

4:30 PM CDT on August 24, 2016 (GMT -0500)
Brownwood Regional

Weather History for KBWD - December, 2012

Change the Weather History Date:

Monday, December 31, 2012

  Actual Average (KABI) Record (KABI)
Temperature  
Mean Temperature 50 °F 44 °F  
Max Temperature 62 °F 56 °F 85 °F (1951)
Min Temperature 39 °F 33 °F 9 °F (1958)
Degree Days  
Heating Degree Days 14 21  
Month to date heating degree days 612  
Since 1 July heating degree days 1045  
Cooling Degree Days 0 0  
Month to date cooling degree days 1  
Year to date cooling degree days 2409  
Moisture  
Dew Point 43 °F    
Average Humidity 84    
Maximum Humidity 100    
Minimum Humidity 55    
Precipitation  
Precipitation 0.00 in 0.04 in 0.96 in (1984)
Month to date precipitation 1.23  
Year to date precipitation 24.82  
Sea Level Pressure  
Sea Level Pressure 30.01 in    
Wind  
Wind Speed 7 mph (SSE)    
Max Wind Speed 13 mph    
Max Gust Speed 18 mph    
Visibility 10 miles    
Events Rain    
T = Trace of Precipitation, MM = Missing Value Source: NWS Daily Summary

Daily Weather History Graph

Daily Weather History Graph

Search for Another Location

Airport or City:

Trip Planner

Search our weather history database for the weather conditions in past years. The results will help you decide how hot, cold, wet, or windy it might be!

Date:

Astronomy

Dec. 31, 2012 Rise Set
Actual Time 7:35 AM CST 5:42 PM CST
Civil Twilight 7:08 AM CST 6:09 PM CST
Nautical Twilight 6:38 AM CST 6:39 PM CST
Astronomical Twilight 6:08 AM CST 7:09 PM CST
Moon 9:01 PM CST (12/31) 9:30 AM CST (12/31)
Length of Visible Light 11h 00m
Length of Day
10h 06m
Waning Gibbous, 90% of the Moon is Illuminated
Dec 31
Waning Gibbous
Jan 4
Last Quarter
Jan 11
New
Jan 18
First Quarter
Jan 26
Full

Hourly Weather History & Observations

Time (CST) Temp. Windchill Dew Point Humidity Pressure Visibility Wind Dir Wind Speed Gust Speed Precip Events Conditions
12:15 AM 41.0 °F - 30.2 °F 65% 30.15 in 10.0 mi North - - N/A   Overcast
12:35 AM 41.0 °F 35.2 °F 32.0 °F 70% 30.14 in 10.0 mi SE 9.2 mph - N/A   Overcast
12:55 AM 42.8 °F 38.0 °F 32.0 °F 66% 30.13 in 10.0 mi SE 8.1 mph - N/A   Overcast
1:15 AM 42.8 °F 37.5 °F 32.0 °F 66% 30.13 in 10.0 mi SSE 9.2 mph - N/A   Overcast
1:35 AM 41.0 °F 33.9 °F 33.8 °F 76% 30.12 in 8.0 mi SSE 12.7 mph - N/A Rain Light Rain
1:55 AM 41.0 °F 34.3 °F 35.6 °F 81% 30.11 in 6.0 mi SE 11.5 mph - N/A Rain Light Rain
2:15 AM 41.0 °F 34.7 °F 35.6 °F 81% 30.11 in 9.0 mi SSE 10.4 mph 18.4 mph N/A Rain Light Rain
2:35 AM 41.0 °F 34.3 °F 37.4 °F 87% 30.10 in 7.0 mi SSE 11.5 mph - N/A Rain Light Rain
2:55 AM 41.0 °F 34.7 °F 37.4 °F 87% 30.08 in 8.0 mi SE 10.4 mph - N/A Rain Light Rain
3:15 AM 41.0 °F 35.2 °F 37.4 °F 87% 30.06 in 10.0 mi SE 9.2 mph - N/A   Overcast
3:35 AM 41.0 °F 33.9 °F 37.4 °F 87% 30.04 in 10.0 mi SE 12.7 mph 17.3 mph N/A   Overcast
3:55 AM 41.0 °F 34.7 °F 37.4 °F 87% 30.03 in 10.0 mi SSE 10.4 mph 16.1 mph N/A   Overcast
4:15 AM 42.8 °F - 37.4 °F 81% 30.02 in 10.0 mi North - - N/A   Overcast
4:35 AM 42.8 °F - 39.2 °F 87% 30.02 in 10.0 mi North - - N/A   Overcast
4:55 AM 42.8 °F - 39.2 °F 87% 30.03 in 10.0 mi North - - N/A   Overcast
5:15 AM 42.8 °F 37.0 °F 39.2 °F 87% 30.02 in 10.0 mi SSE 10.4 mph - N/A   Overcast
5:35 AM 42.8 °F 38.6 °F 41.0 °F 93% 30.00 in 10.0 mi SSE 6.9 mph - N/A   Overcast
5:55 AM 44.6 °F 40.2 °F 41.0 °F 87% 29.99 in 10.0 mi SSE 8.1 mph - N/A   Overcast
6:15 AM 44.6 °F 40.2 °F 41.0 °F 87% 30.00 in 10.0 mi SSE 8.1 mph - N/A   Overcast
6:35 AM 44.6 °F 39.2 °F 42.8 °F 93% 29.97 in 7.0 mi SSE 10.4 mph - N/A Rain Light Rain
6:55 AM 44.6 °F 41.4 °F 44.6 °F 100% 29.98 in 7.0 mi SE 5.8 mph - N/A Rain Light Rain
7:15 AM 46.4 °F 42.9 °F 44.6 °F 93% 29.97 in 10.0 mi SSE 6.9 mph - N/A   Overcast
7:35 AM 46.4 °F 42.9 °F 44.6 °F 93% 30.00 in 10.0 mi South 6.9 mph - N/A   Overcast
7:55 AM 46.4 °F 42.9 °F 44.6 °F 93% 29.99 in 8.0 mi SE 6.9 mph - N/A   Overcast
8:35 AM 46.4 °F 43.5 °F 44.6 °F 93% 30.01 in 8.0 mi SSE 5.8 mph - N/A   Overcast
8:55 AM 46.4 °F 42.9 °F 46.4 °F 100% 30.02 in 10.0 mi SSE 6.9 mph - N/A   Overcast
9:35 AM 46.4 °F 42.9 °F 44.6 °F 93% 30.03 in 8.0 mi SSE 6.9 mph - N/A   Overcast
9:55 AM 46.4 °F 43.5 °F 44.6 °F 93% 30.03 in 8.0 mi SSE 5.8 mph - N/A   Overcast
10:15 AM 46.4 °F 45.2 °F 46.4 °F 100% 30.04 in 7.0 mi South 3.5 mph - N/A   Overcast
10:35 AM 46.4 °F - 46.4 °F 100% 30.05 in 7.0 mi Calm Calm - N/A   Overcast
10:55 AM 46.4 °F - 46.4 °F 100% 30.05 in 9.0 mi Calm Calm - N/A   Overcast
11:15 AM 48.2 °F - 46.4 °F 93% 30.05 in 10.0 mi Calm Calm - N/A   Overcast
11:35 AM 48.2 °F - 46.4 °F 93% 30.04 in 9.0 mi Calm Calm - N/A   Overcast
11:55 AM 48.2 °F - 46.4 °F 93% 30.03 in 9.0 mi SE 3.5 mph - N/A   Overcast
12:15 PM 50.0 °F - 46.4 °F 87% 30.01 in 10.0 mi Calm Calm - N/A   Overcast
12:55 PM 53.6 °F - 48.2 °F 82% 29.99 in 10.0 mi Calm Calm - N/A   Partly Cloudy
1:15 PM 55.4 °F - 48.2 °F 77% 29.98 in 10.0 mi Calm Calm - N/A   Partly Cloudy
1:35 PM 55.4 °F - 50.0 °F 82% 29.98 in 10.0 mi NW 3.5 mph - N/A   Partly Cloudy
1:55 PM 57.2 °F - 50.0 °F 77% 29.97 in 10.0 mi Calm Calm - N/A   Scattered Clouds
2:15 PM 57.2 °F - 50.0 °F 77% 29.97 in 10.0 mi ENE 3.5 mph - N/A   Scattered Clouds
2:35 PM 57.2 °F - 50.0 °F 77% 29.96 in 10.0 mi Calm Calm - N/A   Mostly Cloudy
2:55 PM 59.0 °F - 50.0 °F 72% 29.96 in 10.0 mi SW 5.8 mph - N/A   Scattered Clouds
3:15 PM 60.8 °F - 50.0 °F 68% 29.95 in 10.0 mi SW 9.2 mph - N/A   Clear
3:35 PM 62.6 °F - 48.2 °F 59% 29.95 in 10.0 mi WSW 9.2 mph - N/A   Partly Cloudy
3:55 PM 62.6 °F - 48.2 °F 59% 29.95 in 10.0 mi WSW 8.1 mph - N/A   Clear
4:15 PM 62.6 °F - 48.2 °F 59% 29.95 in 10.0 mi WSW 8.1 mph - N/A   Clear
4:35 PM 62.6 °F - 46.4 °F 55% 29.95 in 10.0 mi West 9.2 mph - N/A   Clear
4:55 PM 62.6 °F - 46.4 °F 55% 29.95 in 10.0 mi WSW 5.8 mph - N/A   Clear
5:15 PM 59.0 °F - 46.4 °F 63% 29.96 in 10.0 mi West 3.5 mph - N/A   Clear
5:35 PM 59.0 °F - 46.4 °F 63% 29.96 in 10.0 mi West 4.6 mph - N/A   Clear
5:55 PM 55.4 °F - 46.4 °F 72% 29.96 in 10.0 mi Calm Calm - N/A   Clear
6:15 PM 53.6 °F - 44.6 °F 72% 29.97 in 10.0 mi Calm Calm - N/A   Clear
6:35 PM 50.0 °F - 44.6 °F 82% 29.96 in 10.0 mi Calm Calm - N/A   Clear
6:55 PM 46.4 °F - 42.8 °F 87% 29.97 in 10.0 mi Calm Calm - N/A   Clear
7:15 PM 46.4 °F - 42.8 °F 87% 29.98 in 10.0 mi North - - N/A   Clear
7:35 PM 46.4 °F 44.3 °F 41.0 °F 81% 29.99 in 10.0 mi ESE 4.6 mph - N/A   Clear
7:55 PM 46.4 °F - 41.0 °F 81% 29.99 in 10.0 mi Calm Calm - N/A   Clear
8:15 PM 42.8 °F - 41.0 °F 93% 29.99 in 10.0 mi Calm Calm - N/A   Mostly Cloudy
8:35 PM 41.0 °F - 39.2 °F 93% 30.00 in 10.0 mi Calm Calm - N/A   Overcast
8:55 PM 42.8 °F - 39.2 °F 87% 30.01 in 10.0 mi Calm Calm - N/A   Overcast
9:15 PM 41.0 °F - 39.2 °F 93% 30.02 in 10.0 mi Calm Calm - N/A   Overcast
9:35 PM 41.0 °F - 39.2 °F 93% 30.01 in 10.0 mi Calm Calm - N/A   Overcast
9:55 PM 39.2 °F - 37.4 °F 93% 30.01 in 10.0 mi Calm Calm - N/A   Overcast
10:15 PM 39.2 °F 37.0 °F 39.2 °F 100% 30.02 in 10.0 mi NNW 3.5 mph - N/A   Overcast
10:35 PM 41.0 °F 39.0 °F 41.0 °F 100% 30.01 in 10.0 mi North 3.5 mph - N/A   Overcast
10:55 PM 41.0 °F - 41.0 °F 100% 30.02 in 10.0 mi Calm Calm - N/A   Overcast
11:15 PM 42.8 °F - 41.0 °F 93% 30.01 in 10.0 mi Calm Calm - N/A   Overcast
11:35 PM 42.8 °F - 41.0 °F 93% 30.01 in 10.0 mi Calm Calm - N/A   Overcast
11:55 PM 44.6 °F 43.1 °F 42.8 °F 93% 30.02 in 10.0 mi NNW 3.5 mph - N/A   Overcast